Meteoalarm - Portugal e Ilhas:

Avisos Meteorológicos para Portugal e Ilhas


Visite-nos no Facebook:

Visite-nos no Facebook


Madeira Webcams:


Grupo MeteoRAM Facebook:

Junte-se ao melhor e mais completo grupo de Meteorologia da Região Autónoma da Madeira



Situação meteorológica que não inspira cuidado.    Sem avisos

Weather Underground Histórico da Estação

Diário Resumo para Março 23, 2019 Unidades:  Métrico    Inglês   Ambos
« Anterior Dia
Seguinte Dia »
Diário Semanal Mensal Anual Personalizado
  Atualmente: Alto: Baixo: Média:
Temperatura: -7.9 °C -17.8 °C -8.9 °C -8.2 °C
Ponto de orvalho: -12.9 °C -17.8 °C -13.8 °C -13.1 °C
Humidade: 56 % Humidity % 56 % 56 %
Velocidade do Vento: 14 km/h 0 km/h 4.2 km/h 14.3 km/h
Rajada de vento: 33.6 km/h 0 km/h - -
Vento:NNW - - West
Pressão Atmosférica: 34415.3 hPa 0 hPa 34405.1 hPa -
Precipitação: 0 mm      
Historical Graphs
 
 
Dados Tabulares para Março 23, 2019
Hora Temperatura Ponto de orvalho Pressão Atmosférica Vento Velocidade do Vento Rajada de vento Humidade Taxa de Precipitação (Por hora)
-17.8 °C -17.8 °C 0 hPa Calm     Humidity % 0 mm
00:04 -8.6 °C -13.4 °C 34581.2 hPa NW 11.6 km/h 37.5 km/h 56 % 0 mm
00:09 -8.5 °C -13.4 °C 34581.2 hPa North 5.6 km/h 37.5 km/h 56 % 0 mm
00:15 -8.5 °C -13.4 °C 34577.8 hPa North 17.9 km/h 31.4 km/h 56 % 0 mm
00:19 -8.5 °C -13.4 °C 34577.8 hPa WNW 15.6 km/h 31.4 km/h 56 % 0 mm
00:24 -8.5 °C -13.4 °C 34581.2 hPa WNW 14 km/h 31.4 km/h 56 % 0 mm
00:29 -8.5 °C -13.4 °C 34574.4 hPa NW 11.6 km/h 29.5 km/h 56 % 0 mm
00:35 -8.5 °C -13.4 °C 34577.8 hPa NW 9.8 km/h 37.5 km/h 56 % 0 mm
00:40 -8.6 °C -13.4 °C 34574.4 hPa NW 15.6 km/h 37.5 km/h 56 % 0 mm
00:45 -8.5 °C -13.4 °C 34571.1 hPa NW 14 km/h 35.2 km/h 56 % 0 mm
00:49 -8.5 °C -13.4 °C 34564.3 hPa NW 9.8 km/h 45.1 km/h 56 % 0 mm
00:54 -8.5 °C -13.4 °C 34567.7 hPa NW 9.8 km/h 45.1 km/h 56 % 0 mm
01:00 -8.6 °C -13.4 °C 34571.1 hPa WNW 14 km/h 27.7 km/h 56 % 0 mm
01:05 -8.5 °C -13.4 °C 34571.1 hPa NW 9.8 km/h 39.4 km/h 56 % 0 mm
01:09 -8.5 °C -13.4 °C 34567.7 hPa NW 15.6 km/h 39.4 km/h 56 % 0 mm
01:15 -8.5 °C -13.4 °C 34567.7 hPa NW 15.6 km/h 37.5 km/h 56 % 0 mm
01:20 -8.5 °C -13.4 °C 34571.1 hPa NNW 17.9 km/h 37.5 km/h 56 % 0 mm
01:24 -8.5 °C -13.4 °C 34571.1 hPa NNW 15.6 km/h 37.5 km/h 56 % 0 mm
01:29 -8.5 °C -13.4 °C 34571.1 hPa NNW 14 km/h 37.5 km/h 56 % 0 mm
01:34 -8.5 °C -13.4 °C 34574.4 hPa NW 15.6 km/h 29.5 km/h 56 % 0 mm
01:39 -8.6 °C -13.4 °C 34571.1 hPa NW 11.6 km/h 27.7 km/h 56 % 0 mm
01:45 -8.6 °C -13.4 °C 34567.7 hPa NNW 5.6 km/h 31.4 km/h 56 % 0 mm
01:49 -8.6 °C -13.4 °C 34567.7 hPa NW 14 km/h 31.4 km/h 56 % 0 mm
01:55 -8.6 °C -13.4 °C 34567.7 hPa WNW 9.8 km/h 27.7 km/h 56 % 0 mm
01:59 -8.6 °C -13.4 °C 34567.7 hPa WNW 9.8 km/h 27.7 km/h 56 % 0 mm
02:05 -8.6 °C -13.4 °C 34567.7 hPa NNW 14 km/h 29.5 km/h 56 % 0 mm
02:10 -8.6 °C -13.4 °C 34564.3 hPa NNW 14 km/h 29.5 km/h 56 % 0 mm
02:15 -8.6 °C -13.5 °C 34557.5 hPa NW 9.8 km/h 29.5 km/h 56 % 0 mm
02:19 -8.6 °C -13.5 °C 34560.9 hPa NNW 15.6 km/h 29.5 km/h 56 % 0 mm
02:24 -8.7 °C -13.6 °C 34554.1 hPa NNW 9.8 km/h 29.5 km/h 56 % 0 mm
02:29 -8.6 °C -13.5 °C 34557.5 hPa NW 4.2 km/h 23.8 km/h 56 % 0 mm
02:34 -8.7 °C -13.6 °C 34550.7 hPa NNW 23.8 km/h 31.4 km/h 56 % 0 mm
02:40 -8.7 °C -13.6 °C 34554.1 hPa North 8 km/h 31.4 km/h 56 % 0 mm
02:44 -8.6 °C -13.5 °C 34554.1 hPa NNW 19.6 km/h 31.4 km/h 56 % 0 mm
02:49 -8.6 °C -13.5 °C 34554.1 hPa NW 17.9 km/h 35.2 km/h 56 % 0 mm
02:54 -8.6 °C -13.5 °C 34550.7 hPa NW 11.6 km/h 39.4 km/h 56 % 0 mm
02:59 -8.7 °C -13.6 °C 34547.4 hPa NW 15.6 km/h 39.4 km/h 56 % 0 mm
03:04 -8.7 °C -13.6 °C 34544 hPa NW 5.6 km/h 31.4 km/h 56 % 0 mm
03:09 -8.7 °C -13.6 °C 34540.6 hPa NNW 11.6 km/h 27.7 km/h 56 % 0 mm
03:14 -8.7 °C -13.6 °C 34537.2 hPa NNW 14 km/h 33.6 km/h 56 % 0 mm
03:20 -8.7 °C -13.6 °C 34537.2 hPa NW 15.6 km/h 33.6 km/h 56 % 0 mm
03:25 -8.7 °C -13.6 °C 34540.6 hPa NW 9.8 km/h 35.2 km/h 56 % 0 mm
03:30 -8.7 °C -13.6 °C 34533.8 hPa NW 11.6 km/h 35.2 km/h 56 % 0 mm
03:35 -8.7 °C -13.6 °C 34533.8 hPa NNW 15.6 km/h 35.2 km/h 56 % 0 mm
03:39 -8.7 °C -13.6 °C 34530.4 hPa NNW 9.8 km/h 33.6 km/h 56 % 0 mm
03:45 -8.7 °C -13.6 °C 34530.4 hPa NW 17.9 km/h 31.4 km/h 56 % 0 mm
03:49 -8.7 °C -13.6 °C 34530.4 hPa NW 9.8 km/h 31.4 km/h 56 % 0 mm
03:54 -8.7 °C -13.6 °C 34533.8 hPa WNW 11.6 km/h 31.4 km/h 56 % 0 mm
03:59 -8.7 °C -13.6 °C 34533.8 hPa NNW 5.6 km/h 23.8 km/h 56 % 0 mm
04:04 -8.7 °C -13.6 °C 34533.8 hPa NNW 14 km/h 35.2 km/h 56 % 0 mm
04:10 -8.7 °C -13.6 °C 34537.2 hPa NNW 21.6 km/h 35.2 km/h 56 % 0 mm
04:14 -8.8 °C -13.7 °C 34527 hPa NNW 11.6 km/h 33.6 km/h 56 % 0 mm
04:20 -8.7 °C -13.6 °C 34530.4 hPa NNW 15.6 km/h 33.6 km/h 56 % 0 mm
04:25 -8.7 °C -13.6 °C 34527 hPa NW 15.6 km/h 31.4 km/h 56 % 0 mm
04:30 -8.7 °C -13.6 °C 34520.3 hPa NNW 17.9 km/h 31.4 km/h 56 % 0 mm
04:34 -8.7 °C -13.6 °C 34520.3 hPa NNW 17.9 km/h 49.2 km/h 56 % 0 mm
04:39 -8.7 °C -13.6 °C 34516.9 hPa NNW 11.6 km/h 49.2 km/h 56 % 0 mm
04:44 -8.7 °C -13.6 °C 34520.3 hPa NNW 25.4 km/h 53.3 km/h 56 % 0 mm
04:49 -8.7 °C -13.6 °C 34516.9 hPa NNW 19.6 km/h 53.3 km/h 56 % 0 mm
04:54 -8.7 °C -13.6 °C 34513.5 hPa NNW 14 km/h 37.5 km/h 56 % 0 mm
04:59 -8.7 °C -13.6 °C 34510.1 hPa WNW 15.6 km/h 35.2 km/h 56 % 0 mm
05:05 -8.7 °C -13.6 °C 34513.5 hPa WNW 8 km/h 45.1 km/h 56 % 0 mm
05:10 -8.7 °C -13.6 °C 34506.7 hPa WNW 14 km/h 45.1 km/h 56 % 0 mm
05:14 -8.7 °C -13.6 °C 34510.1 hPa NW 11.6 km/h 33.6 km/h 56 % 0 mm
05:19 -8.7 °C -13.6 °C 34513.5 hPa NW 11.6 km/h 29.5 km/h 56 % 0 mm
05:25 -8.7 °C -13.6 °C 34513.5 hPa NNW 19.6 km/h 49.2 km/h 56 % 0 mm
05:29 -8.7 °C -13.6 °C 34513.5 hPa NNW 9.8 km/h 49.2 km/h 56 % 0 mm
05:35 -8.8 °C -13.7 °C 34510.1 hPa NW 5.6 km/h 39.4 km/h 56 % 0 mm
05:40 -8.7 °C -13.6 °C 34513.5 hPa NNW 15.6 km/h 39.4 km/h 56 % 0 mm
05:44 -8.7 °C -13.6 °C 34513.5 hPa North 17.9 km/h 39.4 km/h 56 % 0 mm
05:49 -8.7 °C -13.6 °C 34513.5 hPa NNW 14 km/h 37.5 km/h 56 % 0 mm
05:54 -8.7 °C -13.6 °C 34516.9 hPa NNW 9.8 km/h 35.2 km/h 56 % 0 mm
05:59 -8.7 °C -13.6 °C 34520.3 hPa NNW 14 km/h 33.6 km/h 56 % 0 mm
06:04 -8.7 °C -13.6 °C 34513.5 hPa NNW 11.6 km/h 33.6 km/h 56 % 0 mm
06:09 -8.7 °C -13.6 °C 34516.9 hPa NNW 8 km/h 31.4 km/h 56 % 0 mm
06:14 -8.7 °C -13.6 °C 34513.5 hPa North 9.8 km/h 31.4 km/h 56 % 0 mm
06:20 -8.7 °C -13.6 °C 34513.5 hPa North 9.8 km/h 25.4 km/h 56 % 0 mm
06:24 -8.8 °C -13.7 °C 34520.3 hPa NNW 14 km/h 27.7 km/h 56 % 0 mm
06:30 -8.8 °C -13.7 °C 34516.9 hPa NNW 19.6 km/h 29.5 km/h 56 % 0 mm
06:35 -8.8 °C -13.7 °C 34523.7 hPa North 5.6 km/h 29.5 km/h 56 % 0 mm
06:40 -8.8 °C -13.7 °C 34523.7 hPa NNW 8 km/h 29.5 km/h 56 % 0 mm
06:45 -8.8 °C -13.7 °C 34523.7 hPa NW 9.8 km/h 29.5 km/h 56 % 0 mm
06:49 -8.8 °C -13.7 °C 34520.3 hPa NNW 14 km/h 37.5 km/h 56 % 0 mm
06:55 -8.8 °C -13.7 °C 34523.7 hPa NNE 19.6 km/h 41.2 km/h 56 % 0 mm
06:59 -8.8 °C -13.7 °C 34523.7 hPa NNW 11.6 km/h 41.2 km/h 56 % 0 mm
07:05 -8.8 °C -13.7 °C 34520.3 hPa NW 8 km/h 35.2 km/h 56 % 0 mm
07:10 -8.8 °C -13.7 °C 34520.3 hPa NNW 11.6 km/h 43.5 km/h 56 % 0 mm
07:14 -8.8 °C -13.7 °C 34520.3 hPa NNW 9.8 km/h 43.5 km/h 56 % 0 mm
07:19 -8.8 °C -13.7 °C 34520.3 hPa NW 9.8 km/h 25.4 km/h 56 % 0 mm
07:24 -8.8 °C -13.7 °C 34523.7 hPa NW 5.6 km/h 25.4 km/h 56 % 0 mm
07:30 -8.8 °C -13.7 °C 34516.9 hPa North 4.2 km/h 25.4 km/h 56 % 0 mm
07:34 -8.9 °C -13.8 °C 34523.7 hPa North 11.6 km/h 27.7 km/h 56 % 0 mm
07:39 -8.9 °C -13.8 °C 34520.3 hPa North 4.2 km/h 27.7 km/h 56 % 0 mm
07:44 -8.9 °C -13.8 °C 34523.7 hPa NNE 9.8 km/h 33.6 km/h 56 % 0 mm
07:49 -8.8 °C -13.7 °C 34520.3 hPa North 19.6 km/h 35.2 km/h 56 % 0 mm
07:55 -8.8 °C -13.7 °C 34523.7 hPa NNW 5.6 km/h 35.2 km/h 56 % 0 mm
07:59 -8.7 °C -13.6 °C 34523.7 hPa NNW 14 km/h 35.2 km/h 56 % 0 mm
08:05 -8.7 °C -13.6 °C 34523.7 hPa NW 9.8 km/h 27.7 km/h 56 % 0 mm
08:09 -8.7 °C -13.6 °C 34527 hPa NNW 17.9 km/h 31.4 km/h 56 % 0 mm
08:15 -8.6 °C -13.5 °C 34527 hPa North 19.6 km/h 33.6 km/h 56 % 0 mm
08:20 -8.6 °C -13.5 °C 34523.7 hPa NNW 11.6 km/h 33.6 km/h 56 % 0 mm
08:24 -8.6 °C -13.4 °C 34527 hPa NNW 11.6 km/h 33.6 km/h 56 % 0 mm
08:29 -8.6 °C -13.4 °C 34523.7 hPa NW 9.8 km/h 31.4 km/h 56 % 0 mm
08:35 -8.6 °C -13.4 °C 34520.3 hPa WNW 11.6 km/h 39.4 km/h 56 % 0 mm
08:40 -8.4 °C -13.3 °C 34520.3 hPa NW 5.6 km/h 39.4 km/h 56 % 0 mm
08:45 -8.4 °C -13.3 °C 34513.5 hPa NNW 15.6 km/h 35.2 km/h 56 % 0 mm
08:49 -8.3 °C -13.2 °C 34523.7 hPa NNW 21.6 km/h 74.8 km/h 56 % 0 mm
08:54 -8.3 °C -13.2 °C 34523.7 hPa NNW 11.6 km/h 74.8 km/h 56 % 0 mm
08:59 -8.2 °C -13.2 °C 34527 hPa NNW 17.9 km/h 39.4 km/h 56 % 0 mm
09:04 -8.2 °C -13.2 °C 34523.7 hPa NNW 14 km/h 39.4 km/h 56 % 0 mm
09:09 -8.2 °C -13.1 °C 34520.3 hPa NNW 5.6 km/h 37.5 km/h 56 % 0 mm
09:14 -8.2 °C -13.1 °C 34520.3 hPa NNW 23.8 km/h 45.1 km/h 56 % 0 mm
09:20 -8.2 °C -13.1 °C 34523.7 hPa North 25.4 km/h 49.2 km/h 56 % 0 mm
09:24 -8.2 °C -13.2 °C 34523.7 hPa North 17.9 km/h 51 km/h 56 % 0 mm
09:29 -8.3 °C -13.2 °C 34516.9 hPa North 15.6 km/h 51 km/h 56 % 0 mm
09:34 -8.3 °C -13.2 °C 34516.9 hPa North 8 km/h 35.2 km/h 56 % 0 mm
09:39 -8.3 °C -13.2 °C 34523.7 hPa NNW 9.8 km/h 41.2 km/h 56 % 0 mm
09:45 -8.2 °C -13.1 °C 34523.7 hPa North 21.6 km/h 41.2 km/h 56 % 0 mm
09:49 -8.1 °C -13 °C 34520.3 hPa NNW 17.9 km/h 41.2 km/h 56 % 0 mm
09:54 -8.1 °C -13 °C 34527 hPa NNW 21.6 km/h 45.1 km/h 56 % 0 mm
09:59 -8.1 °C -13 °C 34516.9 hPa North 27.7 km/h 45.1 km/h 56 % 0 mm
10:05 -7.9 °C -12.8 °C 34520.3 hPa North 9.8 km/h 43.5 km/h 56 % 0 mm
10:09 -7.9 °C -12.8 °C 34516.9 hPa NNW 14 km/h 49.2 km/h 56 % 0 mm
10:14 -8.1 °C -13 °C 34516.9 hPa NNW 21.6 km/h 49.2 km/h 56 % 0 mm
10:19 -8.1 °C -13 °C 34520.3 hPa North 17.9 km/h 59.1 km/h 56 % 0 mm
10:24 -8.1 °C -13 °C 34523.7 hPa North 14 km/h 59.1 km/h 56 % 0 mm
10:29 -8.1 °C -13 °C 34523.7 hPa North 11.6 km/h 51 km/h 56 % 0 mm
10:34 -8.2 °C -13.1 °C 34523.7 hPa NNW 9.8 km/h 39.4 km/h 56 % 0 mm
10:39 -8.1 °C -13 °C 34527 hPa NNW 9.8 km/h 47.3 km/h 56 % 0 mm
10:44 -7.9 °C -12.9 °C 34527 hPa NW 9.8 km/h 47.3 km/h 56 % 0 mm
10:49 -7.9 °C -12.9 °C 34533.8 hPa NW 11.6 km/h 47.3 km/h 56 % 0 mm
10:55 -7.9 °C -12.8 °C 34530.4 hPa NNW 25.4 km/h 47.3 km/h 56 % 0 mm
10:59 -7.9 °C -12.9 °C 34523.7 hPa NNE 11.6 km/h 45.1 km/h 56 % 0 mm
11:04 -7.8 °C -12.7 °C 34516.9 hPa NNE 29.5 km/h 47.3 km/h 56 % 0 mm
11:10 -7.9 °C -12.8 °C 34520.3 hPa North 9.8 km/h 47.3 km/h 56 % 0 mm
11:15 -7.8 °C -12.7 °C 34516.9 hPa North 17.9 km/h 47.3 km/h 56 % 0 mm
11:19 -7.8 °C -12.8 °C 34513.5 hPa North 19.6 km/h 39.4 km/h 56 % 0 mm
11:24 -7.8 °C -12.7 °C 34513.5 hPa North 19.6 km/h 39.4 km/h 56 % 0 mm
11:29 -7.8 °C -12.7 °C 34506.7 hPa North 23.8 km/h 43.5 km/h 56 % 0 mm
11:34 -7.8 °C -12.7 °C 34503.3 hPa North 4.2 km/h 43.5 km/h 56 % 0 mm
11:39 -7.8 °C -12.8 °C 34506.7 hPa NW 15.6 km/h 43.5 km/h 56 % 0 mm
11:44 -7.9 °C -12.8 °C 34503.3 hPa NW 14 km/h 39.4 km/h 56 % 0 mm
11:49 -7.9 °C -12.8 °C 34500 hPa NW 15.6 km/h 33.6 km/h 56 % 0 mm
11:54 -7.9 °C -12.8 °C 34506.7 hPa NW 9.8 km/h 33.6 km/h 56 % 0 mm
11:59 -7.7 °C -12.7 °C 34503.3 hPa NNW 11.6 km/h 33.6 km/h 56 % 0 mm
12:04 -7.7 °C -12.7 °C 34500 hPa NNW 11.6 km/h 37.5 km/h 56 % 0 mm
12:09 -7.7 °C -12.6 °C 34493.2 hPa North 15.6 km/h 43.5 km/h 56 % 0 mm
12:14 -7.6 °C -12.5 °C 34496.6 hPa NNE 15.6 km/h 43.5 km/h 56 % 0 mm
12:20 -7.5 °C -12.4 °C 34496.6 hPa NNE 14 km/h 41.2 km/h 56 % 0 mm
12:24 -7.4 °C -12.4 °C 34489.8 hPa North 17.9 km/h 41.2 km/h 56 % 0 mm
12:29 -7.5 °C -12.4 °C 34486.4 hPa North 31.4 km/h 49.2 km/h 56 % 0 mm
12:35 -7.5 °C -12.4 °C 34486.4 hPa NNE 11.6 km/h 49.2 km/h 56 % 0 mm
12:39 -7.3 °C -12.3 °C 34486.4 hPa North 25.4 km/h 49.2 km/h 56 % 0 mm
12:45 -7.3 °C -12.3 °C 34483 hPa NNW 9.8 km/h 41.2 km/h 56 % 0 mm
12:49 -7.4 °C -12.3 °C 34483 hPa NNW 21.6 km/h 41.2 km/h 56 % 0 mm
12:54 -7.4 °C -12.4 °C 34479.6 hPa NW 19.6 km/h 41.2 km/h 56 % 0 mm
12:59 -7.5 °C -12.4 °C 34476.3 hPa NNW 25.4 km/h 37.5 km/h 56 % 0 mm
13:05 -7.5 °C -12.4 °C 34476.3 hPa North 21.6 km/h 39.4 km/h 56 % 0 mm
13:10 -7.6 °C -12.5 °C 34469.5 hPa NNW 25.4 km/h 41.2 km/h 56 % 0 mm
13:15 -7.6 °C -12.5 °C 34466.1 hPa North 17.9 km/h 41.2 km/h 56 % 0 mm
13:20 -7.4 °C -12.4 °C 34462.7 hPa NE 21.6 km/h 41.2 km/h 56 % 0 mm
13:24 -7.4 °C -12.4 °C 34462.7 hPa NNE 17.9 km/h 41.2 km/h 56 % 0 mm
13:29 -7.4 °C -12.3 °C 34459.3 hPa North 19.6 km/h 41.2 km/h 56 % 0 mm
13:34 -7.4 °C -12.3 °C 34462.7 hPa NNW 15.6 km/h 41.2 km/h 56 % 0 mm
13:40 -7.3 °C -12.3 °C 34462.7 hPa North 21.6 km/h 41.2 km/h 56 % 0 mm
13:44 -7.4 °C -12.3 °C 34455.9 hPa North 8 km/h 37.5 km/h 56 % 0 mm
13:49 -7.4 °C -12.4 °C 34459.3 hPa North 9.8 km/h 35.2 km/h 56 % 0 mm
13:54 -7.4 °C -12.3 °C 34455.9 hPa NNE 15.6 km/h 35.2 km/h 56 % 0 mm
13:59 -7.4 °C -12.4 °C 34452.6 hPa NNE 11.6 km/h 35.2 km/h 56 % 0 mm
14:04 -7.4 °C -12.3 °C 34462.7 hPa North 19.6 km/h 35.2 km/h 56 % 0 mm
14:10 -7.4 °C -12.3 °C 34459.3 hPa North 23.8 km/h 41.2 km/h 56 % 0 mm
14:14 -7.3 °C -12.3 °C 34452.6 hPa North 21.6 km/h 41.2 km/h 56 % 0 mm
14:19 -7.3 °C -12.3 °C 34452.6 hPa North 14 km/h 39.4 km/h 56 % 0 mm
14:24 -7.2 °C -12.2 °C 34445.8 hPa North 19.6 km/h 37.5 km/h 56 % 0 mm
14:29 -7.2 °C -12.2 °C 34442.4 hPa NNW 14 km/h 37.5 km/h 56 % 0 mm
14:35 -7.1 °C -12.1 °C 34442.4 hPa North 11.6 km/h 37.5 km/h 56 % 0 mm
14:40 -7 °C -12 °C 34442.4 hPa North 15.6 km/h 33.6 km/h 56 % 0 mm
14:44 -7.1 °C -12.1 °C 34439 hPa NNW 14 km/h 33.6 km/h 56 % 0 mm
14:49 -7 °C -12 °C 34439 hPa NW 15.6 km/h 33.6 km/h 56 % 0 mm
14:54 -7.1 °C -12.1 °C 34435.6 hPa NW 14 km/h 37.5 km/h 56 % 0 mm
14:59 -7.1 °C -12.1 °C 34439 hPa NW 17.9 km/h 41.2 km/h 56 % 0 mm
15:05 -7.2 °C -12.2 °C 34435.6 hPa NNW 15.6 km/h 41.2 km/h 56 % 0 mm
15:09 -7.2 °C -12.2 °C 34439 hPa NNW 8 km/h 41.2 km/h 56 % 0 mm
15:14 -7.1 °C -12.1 °C 34432.2 hPa North 17.9 km/h 41.2 km/h 56 % 0 mm
15:19 -7.1 °C -12.1 °C 34432.2 hPa NNW 21.6 km/h 43.5 km/h 56 % 0 mm
15:24 -7.1 °C -12.1 °C 34428.8 hPa NNW 14 km/h 43.5 km/h 56 % 0 mm
15:30 -7 °C -12 °C 34428.8 hPa NNW 14 km/h 43.5 km/h 56 % 0 mm
15:34 -7 °C -12 °C 34428.8 hPa NNW 23.8 km/h 43.5 km/h 56 % 0 mm
15:40 -7.1 °C -12.1 °C 34425.5 hPa NNW 27.7 km/h 43.5 km/h 56 % 0 mm
15:44 -7.1 °C -12.1 °C 34425.5 hPa North 8 km/h 39.4 km/h 56 % 0 mm
15:49 -7 °C -12 °C 34425.5 hPa NNE 14 km/h 39.4 km/h 56 % 0 mm
15:54 -7 °C -12 °C 34428.8 hPa North 19.6 km/h 35.2 km/h 56 % 0 mm
16:00 -7.1 °C -12.1 °C 34425.5 hPa North 19.6 km/h 37.5 km/h 56 % 0 mm
16:05 -7.2 °C -12.2 °C 34428.8 hPa North 29.5 km/h 55.2 km/h 56 % 0 mm
16:10 -7.3 °C -12.3 °C 34425.5 hPa North 11.6 km/h 55.2 km/h 56 % 0 mm
16:15 -7.2 °C -12.2 °C 34425.5 hPa North 19.6 km/h 45.1 km/h 56 % 0 mm
16:19 -7.4 °C -12.3 °C 34415.3 hPa North 19.6 km/h 49.2 km/h 56 % 0 mm
16:24 -7.4 °C -12.4 °C 34418.7 hPa NNE 17.9 km/h 49.2 km/h 56 % 0 mm
16:29 -7.3 °C -12.3 °C 34411.9 hPa North 11.6 km/h 39.4 km/h 56 % 0 mm
16:34 -7.4 °C -12.3 °C 34411.9 hPa North 19.6 km/h 49.2 km/h 56 % 0 mm
16:39 -7.4 °C -12.4 °C 34411.9 hPa North 15.6 km/h 49.2 km/h 56 % 0 mm
16:44 -7.5 °C -12.4 °C 34411.9 hPa North 17.9 km/h 45.1 km/h 56 % 0 mm
16:49 -7.6 °C -12.5 °C 34415.3 hPa North 17.9 km/h 35.2 km/h 56 % 0 mm
16:54 -7.6 °C -12.5 °C 34415.3 hPa North 23.8 km/h 35.2 km/h 56 % 0 mm
17:00 -7.6 °C -12.5 °C 34418.7 hPa North 14 km/h 35.2 km/h 56 % 0 mm
17:05 -7.6 °C -12.6 °C 34411.9 hPa North 14 km/h 35.2 km/h 56 % 0 mm
17:10 -7.6 °C -12.5 °C 34411.9 hPa North 14 km/h 35.2 km/h 56 % 0 mm
17:14 -7.6 °C -12.5 °C 34411.9 hPa North 9.8 km/h 37.5 km/h 56 % 0 mm
17:19 -7.6 °C -12.5 °C 34411.9 hPa NNW 15.6 km/h 37.5 km/h 56 % 0 mm
17:25 -7.7 °C -12.6 °C 34408.5 hPa NNW 14 km/h 29.5 km/h 56 % 0 mm
17:30 -7.7 °C -12.6 °C 34411.9 hPa NNW 15.6 km/h 31.4 km/h 56 % 0 mm
17:35 -7.7 °C -12.7 °C 34411.9 hPa NNW 8 km/h 37.5 km/h 56 % 0 mm
17:40 -7.7 °C -12.7 °C 34408.5 hPa NNW 11.6 km/h 37.5 km/h 56 % 0 mm
17:44 -7.8 °C -12.7 °C 34411.9 hPa NNW 9.8 km/h 29.5 km/h 56 % 0 mm
17:50 -7.8 °C -12.7 °C 34405.1 hPa NNW 11.6 km/h 35.2 km/h 56 % 0 mm
17:55 -7.8 °C -12.8 °C 34411.9 hPa North 17.9 km/h 51 km/h 56 % 0 mm
17:59 -7.9 °C -12.8 °C 34411.9 hPa North 9.8 km/h 51 km/h 56 % 0 mm
18:05 -7.9 °C -12.8 °C 34415.3 hPa North 5.6 km/h 31.4 km/h 56 % 0 mm
18:09 -7.9 °C -12.8 °C 34411.9 hPa NNW 11.6 km/h 27.7 km/h 56 % 0 mm
18:15 -7.9 °C -12.8 °C 34415.3 hPa NNW 4.2 km/h 23.8 km/h 56 % 0 mm
18:19 -7.9 °C -12.9 °C 34415.3 hPa NNW 14 km/h 33.6 km/h 56 % 0 mm
MeteoMachico
Cumprimentos de Weather Underground - 3.5 mb

Script original por  Jim McMurry - jmcmurry@mwt.net Adaptado para o modelo por  Wim van der Kuil - Leuven-Template.eu

Equipamento que usamos:

Estação Meteorológica
Weatherwise ws-1080

IPCAM
Dericam H502W

Servidor
Digital Ocean

Weatherwise ws-1080

Dericam H502W

Digital Ocean